owner,sensor,date,latitude,longitude,vertical_datum,wind_speed,wind_to_direction,wind_speed_of_gust,qcFlag 
ADCP,ioos:station:wmo:42362:1,2016-08-22T08:30:00Z,27.7950,-90.6480,122.0,2.6,151.0,99.0,'11111222,11111222,11144222' 
ADCP,ioos:station:wmo:42362:1,2016-08-22T09:30:00Z,27.7950,-90.6480,122.0,2.1,141.0,99.0,'11111222,11111222,11144222' 
ADCP,ioos:station:wmo:42362:1,2016-08-22T10:30:00Z,27.7950,-90.6480,122.0,1.6,108.0,99.0,'11111222,11111222,11144222' 
ADCP,ioos:station:wmo:42362:1,2016-08-22T11:30:00Z,27.7950,-90.6480,122.0,1.5,110.0,99.0,'11111222,11111222,11144222' 
ADCP,ioos:station:wmo:42362:1,2016-08-22T12:30:00Z,27.7950,-90.6480,122.0,0.7,41.0,99.0,'11111222,11111222,11144222' 
ADCP,ioos:station:wmo:42362:1,2016-08-22T13:30:00Z,27.7950,-90.6480,122.0,0.0,0.0,99.0,'11111222,11111222,11144222' 
ADCP,ioos:station:wmo:42362:1,2016-08-22T14:30:00Z,27.7950,-90.6480,122.0,0.1,3.0,99.0,'11111222,11111222,11144222' 
ADCP,ioos:station:wmo:42362:1,2016-08-22T15:30:00Z,27.7950,-90.6480,122.0,0.5,18.0,99.0,'11111222,11111222,11144222' 
ADCP,ioos:station:wmo:42362:1,2016-08-22T16:30:00Z,27.7950,-90.6480,122.0,1.5,53.0,99.0,'11111222,11111222,11144222' 
ADCP,ioos:station:wmo:42362:1,2016-08-22T17:30:00Z,27.7950,-90.6480,122.0,1.7,75.0,99.0,'11111222,11111222,11144222' 
ADCP,ioos:station:wmo:42362:1,2016-08-22T18:30:00Z,27.7950,-90.6480,122.0,2.1,90.0,99.0,'11111222,11111222,11144222' 
ADCP,ioos:station:wmo:42362:1,2016-08-22T19:30:00Z,27.7950,-90.6480,122.0,2.2,95.0,99.0,'11111222,11111222,11144222' 
ADCP,ioos:station:wmo:42362:1,2016-08-22T20:30:00Z,27.7950,-90.6480,122.0,2.1,109.0,99.0,'11111222,11111222,11144222' 
ADCP,ioos:station:wmo:42362:1,2016-08-22T21:30:00Z,27.7950,-90.6480,122.0,99.0,-9999.0,99.0,'11144222,99999999,11144222' 
ADCP,ioos:station:wmo:42362:1,2016-08-22T22:30:00Z,27.7950,-90.6480,122.0,99.0,-9999.0,99.0,'11144222,99999999,11144222' 
ADCP,ioos:station:wmo:42362:1,2016-08-22T23:30:00Z,27.7950,-90.6480,122.0,99.0,-9999.0,99.0,'11144222,99999999,11144222' 
ADCP,ioos:station:wmo:42362:1,2016-08-23T00:30:00Z,27.7950,-90.6480,122.0,1.7,105.0,99.0,'11111222,11111222,11144222' 
ADCP,ioos:station:wmo:42362:1,2016-08-23T01:30:00Z,27.7950,-90.6480,122.0,2.0,118.0,99.0,'11111222,11111222,11144222' 
ADCP,ioos:station:wmo:42362:1,2016-08-23T02:30:00Z,27.7950,-90.6480,122.0,1.8,94.0,99.0,'11111222,11111222,11144222' 
ADCP,ioos:station:wmo:42362:1,2016-08-23T03:30:00Z,27.7950,-90.6480,122.0,2.5,105.0,99.0,'11111222,11111222,11144222' 
ADCP,ioos:station:wmo:42362:1,2016-08-23T04:30:00Z,27.7950,-90.6480,122.0,2.6,97.0,99.0,'11111222,11111222,11144222' 
ADCP,ioos:station:wmo:42362:1,2016-08-23T05:30:00Z,27.7950,-90.6480,122.0,2.2,89.0,99.0,'11111222,11111222,11144222' 
ADCP,ioos:station:wmo:42362:1,2016-08-23T06:30:00Z,27.7950,-90.6480,122.0,2.6,99.0,99.0,'11111222,11111222,11144222' 
ADCP,ioos:station:wmo:42362:1,2016-08-23T07:30:00Z,27.7950,-90.6480,122.0,2.4,100.0,99.0,'11111222,11111222,11144222' 
ADCP,ioos:station:wmo:42362:1,2016-08-23T08:30:00Z,27.7950,-90.6480,122.0,2.5,114.0,99.0,'11111222,11111222,11144222' 
ADCP,ioos:station:wmo:42362:1,2016-08-23T09:30:00Z,27.7950,-90.6480,122.0,1.9,120.0,99.0,'11111222,11111222,11144222' 
ADCP,ioos:station:wmo:42362:1,2016-08-23T10:30:00Z,27.7950,-90.6480,122.0,1.7,119.0,99.0,'11111222,11111222,11144222' 
ADCP,ioos:station:wmo:42362:1,2016-08-23T11:30:00Z,27.7950,-90.6480,122.0,1.4,103.0,99.0,'11111222,11111222,11144222' 
ADCP,ioos:station:wmo:42362:1,2016-08-23T12:30:00Z,27.7950,-90.6480,122.0,1.7,108.0,99.0,'11111222,11111222,11144222' 
ADCP,ioos:station:wmo:42362:1,2016-08-23T13:30:00Z,27.7950,-90.6480,122.0,1.8,76.0,99.0,'11111222,11111222,11144222' 
ADCP,ioos:station:wmo:42362:1,2016-08-23T14:30:00Z,27.7950,-90.6480,122.0,2.7,77.0,99.0,'11111222,11111222,11144222' 
ADCP,ioos:station:wmo:42362:1,2016-08-23T15:30:00Z,27.7950,-90.6480,122.0,3.5,76.0,99.0,'11111222,11111222,11144222' 
ADCP,ioos:station:wmo:42362:1,2016-08-23T16:30:00Z,27.7950,-90.6480,122.0,3.4,81.0,99.0,'11111222,11111222,11144222' 
ADCP,ioos:station:wmo:42362:1,2016-08-23T17:30:00Z,27.7950,-90.6480,122.0,3.6,85.0,99.0,'11111222,11111222,11144222' 
ADCP,ioos:station:wmo:42362:1,2016-08-23T18:30:00Z,27.7950,-90.6480,122.0,3.4,84.0,99.0,'11111222,11111222,11144222' 
ADCP,ioos:station:wmo:42362:1,2016-08-23T19:30:00Z,27.7950,-90.6480,122.0,3.1,82.0,99.0,'11111222,11111222,11144222' 
ADCP,ioos:station:wmo:42362:1,2016-08-23T20:30:00Z,27.7950,-90.6480,122.0,2.7,81.0,99.0,'11111222,11111222,11144222' 
ADCP,ioos:station:wmo:42362:1,2016-08-23T21:30:00Z,27.7950,-90.6480,122.0,3.2,86.0,99.0,'11111222,11111222,11144222' 
ADCP,ioos:station:wmo:42362:1,2016-08-23T22:30:00Z,27.7950,-90.6480,122.0,2.7,87.0,99.0,'11111222,11111222,11144222' 
ADCP,ioos:station:wmo:42362:1,2016-08-23T23:30:00Z,27.7950,-90.6480,122.0,2.4,88.0,99.0,'11111222,11111222,11144222' 
ADCP,ioos:station:wmo:42362:1,2016-08-24T00:30:00Z,27.7950,-90.6480,122.0,2.2,89.0,99.0,'11111222,11111222,11144222' 
ADCP,ioos:station:wmo:42362:1,2016-08-24T01:30:00Z,27.7950,-90.6480,122.0,2.0,86.0,99.0,'11111222,11111222,11144222' 
ADCP,ioos:station:wmo:42362:1,2016-08-24T02:30:00Z,27.7950,-90.6480,122.0,2.0,82.0,99.0,'11111222,11111222,11144222' 
ADCP,ioos:station:wmo:42362:1,2016-08-24T03:30:00Z,27.7950,-90.6480,122.0,2.1,79.0,99.0,'11111222,11111222,11144222' 
ADCP,ioos:station:wmo:42362:1,2016-08-24T04:30:00Z,27.7950,-90.6480,122.0,2.0,82.0,99.0,'11111222,11111222,11144222' 
ADCP,ioos:station:wmo:42362:1,2016-08-24T05:30:00Z,27.7950,-90.6480,122.0,2.2,92.0,99.0,'11111222,11111222,11144222' 
ADCP,ioos:station:wmo:42362:1,2016-08-24T06:30:00Z,27.7950,-90.6480,122.0,2.3,90.0,99.0,'11111222,11111222,11144222' 
ADCP,ioos:station:wmo:42362:1,2016-08-24T07:30:00Z,27.7950,-90.6480,122.0,1.7,84.0,99.0,'11111222,11111222,11144222' 
ADCP,ioos:station:wmo:42362:1,2016-08-24T08:30:00Z,27.7950,-90.6480,122.0,1.1,47.0,99.0,'11111222,11111222,11144222' 
ADCP,ioos:station:wmo:42362:1,2016-08-24T09:30:00Z,27.7950,-90.6480,122.0,0.1,1.0,99.0,'11111222,11111222,11144222' 
ADCP,ioos:station:wmo:42362:1,2016-08-24T10:30:00Z,27.7950,-90.6480,122.0,0.8,360.0,99.0,'11111222,11144222,11144222' 
ADCP,ioos:station:wmo:42362:1,2016-08-24T11:30:00Z,27.7950,-90.6480,122.0,1.3,359.0,99.0,'11111222,11111222,11144222' 
ADCP,ioos:station:wmo:42362:1,2016-08-24T12:30:00Z,27.7950,-90.6480,122.0,2.0,11.0,99.0,'11111222,11111222,11144222' 
ADCP,ioos:station:wmo:42362:1,2016-08-24T13:30:00Z,27.7950,-90.6480,122.0,3.1,21.0,99.0,'11111222,11111222,11144222' 
ADCP,ioos:station:wmo:42362:1,2016-08-24T14:30:00Z,27.7950,-90.6480,122.0,4.3,37.0,99.0,'11111222,11111222,11144222' 
ADCP,ioos:station:wmo:42362:1,2016-08-24T15:30:00Z,27.7950,-90.6480,122.0,3.9,49.0,99.0,'11111222,11111222,11144222' 
ADCP,ioos:station:wmo:42362:1,2016-08-24T16:30:00Z,27.7950,-90.6480,122.0,4.3,53.0,99.0,'11111222,11111222,11144222' 
ADCP,ioos:station:wmo:42362:1,2016-08-24T17:30:00Z,27.7950,-90.6480,122.0,4.0,56.0,99.0,'11111222,11111222,11144222' 
ADCP,ioos:station:wmo:42362:1,2016-08-24T18:30:00Z,27.7950,-90.6480,122.0,3.7,57.0,99.0,'11111222,11111222,11144222' 
ADCP,ioos:station:wmo:42362:1,2016-08-24T19:30:00Z,27.7950,-90.6480,122.0,3.7,57.0,99.0,'11111222,11111222,11144222' 
ADCP,ioos:station:wmo:42362:1,2016-08-24T20:30:00Z,27.7950,-90.6480,122.0,3.5,60.0,99.0,'11111222,11111222,11144222' 
ADCP,ioos:station:wmo:42362:1,2016-08-24T21:30:00Z,27.7950,-90.6480,122.0,2.5,62.0,99.0,'11111222,11111222,11144222' 
ADCP,ioos:station:wmo:42362:1,2016-08-24T22:30:00Z,27.7950,-90.6480,122.0,2.6,57.0,99.0,'11111222,11111222,11144222' 
ADCP,ioos:station:wmo:42362:1,2016-08-24T23:30:00Z,27.7950,-90.6480,122.0,3.0,64.0,99.0,'11111222,11111222,11144222' 
ADCP,ioos:station:wmo:42362:1,2016-08-25T00:30:00Z,27.7950,-90.6480,122.0,3.5,60.0,99.0,'11111222,11111222,11144222' 
ADCP,ioos:station:wmo:42362:1,2016-08-25T01:30:00Z,27.7950,-90.6480,122.0,4.2,57.0,99.0,'11111222,11111222,11144222' 
ADCP,ioos:station:wmo:42362:1,2016-08-25T02:30:00Z,27.7950,-90.6480,122.0,4.7,59.0,99.0,'11111222,11111222,11144222' 
ADCP,ioos:station:wmo:42362:1,2016-08-25T03:30:00Z,27.7950,-90.6480,122.0,3.9,75.0,99.0,'11111222,11111222,11144222' 
ADCP,ioos:station:wmo:42362:1,2016-08-25T04:30:00Z,27.7950,-90.6480,122.0,4.3,81.0,99.0,'11111222,11111222,11144222' 
ADCP,ioos:station:wmo:42362:1,2016-08-25T05:30:00Z,27.7950,-90.6480,122.0,5.1,87.0,99.0,'11111222,11111222,11144222' 
ADCP,ioos:station:wmo:42362:1,2016-08-25T06:30:00Z,27.7950,-90.6480,122.0,5.8,87.0,99.0,'11111222,11111222,11144222' 
ADCP,ioos:station:wmo:42362:1,2016-08-25T07:30:00Z,27.7950,-90.6480,122.0,5.3,96.0,99.0,'11111222,11111222,11144222' 
ADCP,ioos:station:wmo:42362:1,2016-08-25T08:30:00Z,27.7950,-90.6480,122.0,5.3,95.0,99.0,'11111222,11111222,11144222' 
ADCP,ioos:station:wmo:42362:1,2016-08-25T09:30:00Z,27.7950,-90.6480,122.0,4.9,101.0,99.0,'11111222,11111222,11144222' 
ADCP,ioos:station:wmo:42362:1,2016-08-25T10:30:00Z,27.7950,-90.6480,122.0,3.7,96.0,99.0,'11111222,11111222,11144222' 
ADCP,ioos:station:wmo:42362:1,2016-08-25T11:30:00Z,27.7950,-90.6480,122.0,2.9,91.0,99.0,'11111222,11111222,11144222' 
ADCP,ioos:station:wmo:42362:1,2016-08-25T12:30:00Z,27.7950,-90.6480,122.0,3.5,80.0,99.0,'11111222,11111222,11144222' 
ADCP,ioos:station:wmo:42362:1,2016-08-25T13:30:00Z,27.7950,-90.6480,122.0,3.6,72.0,99.0,'11111222,11111222,11144222' 
ADCP,ioos:station:wmo:42362:1,2016-08-25T14:30:00Z,27.7950,-90.6480,122.0,3.3,77.0,99.0,'11111222,11111222,11144222' 
ADCP,ioos:station:wmo:42362:1,2016-08-25T15:30:00Z,27.7950,-90.6480,122.0,2.6,78.0,99.0,'11111222,11111222,11144222' 
ADCP,ioos:station:wmo:42362:1,2016-08-25T16:30:00Z,27.7950,-90.6480,122.0,3.2,66.0,99.0,'11111222,11111222,11144222' 
ADCP,ioos:station:wmo:42362:1,2016-08-25T17:30:00Z,27.7950,-90.6480,122.0,7.7,80.0,99.0,'11111222,11111222,11144222' 
ADCP,ioos:station:wmo:42362:1,2016-08-25T18:30:00Z,27.7950,-90.6480,122.0,4.3,256.0,99.0,'11111222,11111222,11144222' 
ADCP,ioos:station:wmo:42362:1,2016-08-25T19:30:00Z,27.7950,-90.6480,122.0,26.2,62.0,99.0,'11111222,11111222,11144222' 
ADCP,ioos:station:wmo:42362:1,2016-08-25T20:30:00Z,27.7950,-90.6480,122.0,10.5,291.0,99.0,'11111222,11111222,11144222' 
ADCP,ioos:station:wmo:42362:1,2016-08-25T21:30:00Z,27.7950,-90.6480,122.0,7.9,328.0,99.0,'11111222,11111222,11144222' 
ADCP,ioos:station:wmo:42362:1,2016-08-25T22:30:00Z,27.7950,-90.6480,122.0,5.9,354.0,99.0,'11111222,11111222,11144222' 
ADCP,ioos:station:wmo:42362:1,2016-08-25T23:30:00Z,27.7950,-90.6480,122.0,7.3,40.0,99.0,'11111222,11111222,11144222' 
ADCP,ioos:station:wmo:42362:1,2016-08-26T00:30:00Z,27.7950,-90.6480,122.0,8.1,55.0,99.0,'11111222,11111222,11144222' 
ADCP,ioos:station:wmo:42362:1,2016-08-26T01:30:00Z,27.7950,-90.6480,122.0,9.4,69.0,99.0,'11111222,11111222,11144222' 
ADCP,ioos:station:wmo:42362:1,2016-08-26T02:30:00Z,27.7950,-90.6480,122.0,9.6,74.0,99.0,'11111222,11111222,11144222' 
ADCP,ioos:station:wmo:42362:1,2016-08-26T03:30:00Z,27.7950,-90.6480,122.0,10.2,61.0,99.0,'11111222,11111222,11144222' 
ADCP,ioos:station:wmo:42362:1,2016-08-26T04:30:00Z,27.7950,-90.6480,122.0,9.8,68.0,99.0,'11111222,11111222,11144222' 
ADCP,ioos:station:wmo:42362:1,2016-08-26T05:30:00Z,27.7950,-90.6480,122.0,8.1,74.0,99.0,'11111222,11111222,11144222' 
ADCP,ioos:station:wmo:42362:1,2016-08-26T06:30:00Z,27.7950,-90.6480,122.0,6.3,83.0,99.0,'11111222,11111222,11144222' 
ADCP,ioos:station:wmo:42362:1,2016-08-26T07:30:00Z,27.7950,-90.6480,122.0,6.0,85.0,99.0,'11111222,11111222,11144222' 
ADCP,ioos:station:wmo:42362:1,2016-08-26T08:30:00Z,27.7950,-90.6480,122.0,5.7,98.0,99.0,'11111222,11111222,11144222' 
ADCP,ioos:station:wmo:42362:1,2016-08-26T09:30:00Z,27.7950,-90.6480,122.0,3.4,112.0,99.0,'11111222,11111222,11144222' 
ADCP,ioos:station:wmo:42362:1,2016-08-26T10:30:00Z,27.7950,-90.6480,122.0,3.9,105.0,99.0,'11111222,11111222,11144222' 
ADCP,ioos:station:wmo:42362:1,2016-08-26T11:30:00Z,27.7950,-90.6480,122.0,2.0,104.0,99.0,'11111222,11111222,11144222' 
ADCP,ioos:station:wmo:42362:1,2016-08-26T12:30:00Z,27.7950,-90.6480,122.0,1.9,157.0,99.0,'11111222,11111222,11144222' 
ADCP,ioos:station:wmo:42362:1,2016-08-26T13:30:00Z,27.7950,-90.6480,122.0,1.1,16.0,99.0,'11111222,11111222,11144222' 
ADCP,ioos:station:wmo:42362:1,2016-08-26T14:30:00Z,27.7950,-90.6480,122.0,2.9,30.0,99.0,'11111222,11111222,11144222' 
ADCP,ioos:station:wmo:42362:1,2016-08-26T15:30:00Z,27.7950,-90.6480,122.0,3.5,41.0,99.0,'11111222,11111222,11144222' 
ADCP,ioos:station:wmo:42362:1,2016-08-26T16:30:00Z,27.7950,-90.6480,122.0,4.7,45.0,99.0,'11111222,11111222,11144222' 
ADCP,ioos:station:wmo:42362:1,2016-08-26T17:30:00Z,27.7950,-90.6480,122.0,5.1,39.0,99.0,'11111222,11111222,11144222' 
ADCP,ioos:station:wmo:42362:1,2016-08-26T18:30:00Z,27.7950,-90.6480,122.0,4.2,52.0,99.0,'11111222,11111222,11144222' 
ADCP,ioos:station:wmo:42362:1,2016-08-26T19:30:00Z,27.7950,-90.6480,122.0,3.4,53.0,99.0,'11111222,11111222,11144222' 
ADCP,ioos:station:wmo:42362:1,2016-08-26T20:30:00Z,27.7950,-90.6480,122.0,4.1,49.0,99.0,'11111222,11111222,11144222' 
ADCP,ioos:station:wmo:42362:1,2016-08-26T21:30:00Z,27.7950,-90.6480,122.0,5.5,56.0,99.0,'11111222,11111222,11144222' 
ADCP,ioos:station:wmo:42362:1,2016-08-26T22:30:00Z,27.7950,-90.6480,122.0,6.7,62.0,99.0,'11111222,11111222,11144222' 
ADCP,ioos:station:wmo:42362:1,2016-08-26T23:30:00Z,27.7950,-90.6480,122.0,6.9,76.0,99.0,'11111222,11111222,11144222' 
ADCP,ioos:station:wmo:42362:1,2016-08-27T00:30:00Z,27.7950,-90.6480,122.0,6.0,85.0,99.0,'11111222,11111222,11144222' 
ADCP,ioos:station:wmo:42362:1,2016-08-27T01:30:00Z,27.7950,-90.6480,122.0,5.3,87.0,99.0,'11111222,11111222,11144222' 
ADCP,ioos:station:wmo:42362:1,2016-08-27T02:30:00Z,27.7950,-90.6480,122.0,4.6,84.0,99.0,'11111222,11111222,11144222' 
ADCP,ioos:station:wmo:42362:1,2016-08-27T03:30:00Z,27.7950,-90.6480,122.0,6.1,90.0,99.0,'11111222,11111222,11144222' 
ADCP,ioos:station:wmo:42362:1,2016-08-27T04:30:00Z,27.7950,-90.6480,122.0,6.1,93.0,99.0,'11111222,11111222,11144222' 
ADCP,ioos:station:wmo:42362:1,2016-08-27T05:30:00Z,27.7950,-90.6480,122.0,7.0,94.0,99.0,'11111222,11111222,11144222' 
ADCP,ioos:station:wmo:42362:1,2016-08-27T06:30:00Z,27.7950,-90.6480,122.0,7.1,105.0,99.0,'11111222,11111222,11144222' 
ADCP,ioos:station:wmo:42362:1,2016-08-27T07:30:00Z,27.7950,-90.6480,122.0,7.1,106.0,99.0,'11111222,11111222,11144222' 
ADCP,ioos:station:wmo:42362:1,2016-08-27T08:30:00Z,27.7950,-90.6480,122.0,5.5,111.0,99.0,'11111222,11111222,11144222' 
ADCP,ioos:station:wmo:42362:1,2016-08-27T09:30:00Z,27.7950,-90.6480,122.0,6.0,106.0,99.0,'11111222,11111222,11144222' 
ADCP,ioos:station:wmo:42362:1,2016-08-27T10:30:00Z,27.7950,-90.6480,122.0,5.8,101.0,99.0,'11111222,11111222,11144222' 
ADCP,ioos:station:wmo:42362:1,2016-08-27T11:30:00Z,27.7950,-90.6480,122.0,5.2,120.0,99.0,'11111222,11111222,11144222' 
ADCP,ioos:station:wmo:42362:1,2016-08-27T12:30:00Z,27.7950,-90.6480,122.0,4.4,131.0,99.0,'11111222,11111222,11144222' 
ADCP,ioos:station:wmo:42362:1,2016-08-27T13:30:00Z,27.7950,-90.6480,122.0,4.0,143.0,99.0,'11111222,11111222,11144222' 
ADCP,ioos:station:wmo:42362:1,2016-08-27T14:30:00Z,27.7950,-90.6480,122.0,2.2,160.0,99.0,'11111222,11111222,11144222' 
ADCP,ioos:station:wmo:42362:1,2016-08-27T15:30:00Z,27.7950,-90.6480,122.0,2.1,148.0,99.0,'11111222,11111222,11144222' 
ADCP,ioos:station:wmo:42362:1,2016-08-27T16:30:00Z,27.7950,-90.6480,122.0,1.4,98.0,99.0,'11111222,11111222,11144222' 
ADCP,ioos:station:wmo:42362:1,2016-08-27T17:30:00Z,27.7950,-90.6480,122.0,0.1,5.0,99.0,'11111222,11111222,11144222' 
ADCP,ioos:station:wmo:42362:1,2016-08-27T18:30:00Z,27.7950,-90.6480,122.0,0.0,1.0,99.0,'11111222,11111222,11144222' 
ADCP,ioos:station:wmo:42362:1,2016-08-27T19:30:00Z,27.7950,-90.6480,122.0,0.9,54.0,99.0,'11111222,11111222,11144222' 
ADCP,ioos:station:wmo:42362:1,2016-08-27T20:30:00Z,27.7950,-90.6480,122.0,1.4,67.0,99.0,'11111222,11111222,11144222' 
ADCP,ioos:station:wmo:42362:1,2016-08-27T21:30:00Z,27.7950,-90.6480,122.0,2.5,86.0,99.0,'11111222,11111222,11144222' 
ADCP,ioos:station:wmo:42362:1,2016-08-27T22:30:00Z,27.7950,-90.6480,122.0,3.2,88.0,99.0,'11111222,11111222,11144222' 
ADCP,ioos:station:wmo:42362:1,2016-08-27T23:30:00Z,27.7950,-90.6480,122.0,4.6,94.0,99.0,'11111222,11111222,11144222' 
ADCP,ioos:station:wmo:42362:1,2016-08-28T00:30:00Z,27.7950,-90.6480,122.0,4.9,85.0,99.0,'11111222,11111222,11144222' 
ADCP,ioos:station:wmo:42362:1,2016-08-28T01:30:00Z,27.7950,-90.6480,122.0,6.5,90.0,99.0,'11111222,11111222,11144222' 
ADCP,ioos:station:wmo:42362:1,2016-08-28T02:30:00Z,27.7950,-90.6480,122.0,3.5,102.0,99.0,'11111222,11111222,11144222' 
ADCP,ioos:station:wmo:42362:1,2016-08-28T03:30:00Z,27.7950,-90.6480,122.0,4.4,103.0,99.0,'11111222,11111222,11144222' 
ADCP,ioos:station:wmo:42362:1,2016-08-28T04:30:00Z,27.7950,-90.6480,122.0,5.3,101.0,99.0,'11111222,11111222,11144222' 
ADCP,ioos:station:wmo:42362:1,2016-08-28T05:30:00Z,27.7950,-90.6480,122.0,5.3,97.0,99.0,'11111222,11111222,11144222' 
ADCP,ioos:station:wmo:42362:1,2016-08-28T06:30:00Z,27.7950,-90.6480,122.0,5.9,94.0,99.0,'11111222,11111222,11144222' 
ADCP,ioos:station:wmo:42362:1,2016-08-28T07:30:00Z,27.7950,-90.6480,122.0,8.6,96.0,99.0,'11111222,11111222,11144222' 
ADCP,ioos:station:wmo:42362:1,2016-08-28T08:30:00Z,27.7950,-90.6480,122.0,5.0,99.0,99.0,'11111222,11111222,11144222' 
ADCP,ioos:station:wmo:42362:1,2016-08-28T09:30:00Z,27.7950,-90.6480,122.0,3.0,87.0,99.0,'11111222,11111222,11144222' 
ADCP,ioos:station:wmo:42362:1,2016-08-28T10:30:00Z,27.7950,-90.6480,122.0,2.9,85.0,99.0,'11111222,11111222,11144222' 
ADCP,ioos:station:wmo:42362:1,2016-08-28T11:30:00Z,27.7950,-90.6480,122.0,2.0,85.0,99.0,'11111222,11111222,11144222' 
ADCP,ioos:station:wmo:42362:1,2016-08-28T12:30:00Z,27.7950,-90.6480,122.0,1.9,58.0,99.0,'11111222,11111222,11144222' 
ADCP,ioos:station:wmo:42362:1,2016-08-28T13:30:00Z,27.7950,-90.6480,122.0,2.9,77.0,99.0,'11111222,11111222,11144222' 
ADCP,ioos:station:wmo:42362:1,2016-08-28T14:30:00Z,27.7950,-90.6480,122.0,3.4,86.0,99.0,'11111222,11111222,11144222' 
ADCP,ioos:station:wmo:42362:1,2016-08-28T15:30:00Z,27.7950,-90.6480,122.0,2.9,79.0,99.0,'11111222,11111222,11144222' 
ADCP,ioos:station:wmo:42362:1,2016-08-28T16:30:00Z,27.7950,-90.6480,122.0,4.6,97.0,99.0,'11111222,11111222,11144222' 
ADCP,ioos:station:wmo:42362:1,2016-08-28T17:30:00Z,27.7950,-90.6480,122.0,3.6,84.0,99.0,'11111222,11111222,11144222' 
ADCP,ioos:station:wmo:42362:1,2016-08-28T18:30:00Z,27.7950,-90.6480,122.0,5.3,69.0,99.0,'11111222,11111222,11144222' 
ADCP,ioos:station:wmo:42362:1,2016-08-28T19:30:00Z,27.7950,-90.6480,122.0,5.2,93.0,99.0,'11111222,11111222,11144222' 
ADCP,ioos:station:wmo:42362:1,2016-08-28T20:30:00Z,27.7950,-90.6480,122.0,2.7,101.0,99.0,'11111222,11111222,11144222' 
ADCP,ioos:station:wmo:42362:1,2016-08-28T21:30:00Z,27.7950,-90.6480,122.0,5.6,95.0,99.0,'11111222,11111222,11144222' 
ADCP,ioos:station:wmo:42362:1,2016-08-28T22:30:00Z,27.7950,-90.6480,122.0,7.5,82.0,99.0,'11111222,11111222,11144222' 
ADCP,ioos:station:wmo:42362:1,2016-08-28T23:30:00Z,27.7950,-90.6480,122.0,8.0,74.0,99.0,'11111222,11111222,11144222' 
ADCP,ioos:station:wmo:42362:1,2016-08-29T00:30:00Z,27.7950,-90.6480,122.0,7.4,81.0,99.0,'11111222,11111222,11144222' 
ADCP,ioos:station:wmo:42362:1,2016-08-29T01:30:00Z,27.7950,-90.6480,122.0,7.5,95.0,99.0,'11111222,11111222,11144222' 
ADCP,ioos:station:wmo:42362:1,2016-08-29T02:30:00Z,27.7950,-90.6480,122.0,8.8,92.0,99.0,'11111222,11111222,11144222' 
ADCP,ioos:station:wmo:42362:1,2016-08-29T03:30:00Z,27.7950,-90.6480,122.0,9.4,94.0,99.0,'11111222,11111222,11144222' 
ADCP,ioos:station:wmo:42362:1,2016-08-29T04:30:00Z,27.7950,-90.6480,122.0,9.1,91.0,99.0,'11111222,11111222,11144222' 
ADCP,ioos:station:wmo:42362:1,2016-08-29T05:30:00Z,27.7950,-90.6480,122.0,8.6,81.0,99.0,'11111222,11111222,11144222' 
ADCP,ioos:station:wmo:42362:1,2016-08-29T06:30:00Z,27.7950,-90.6480,122.0,9.5,94.0,99.0,'11111222,11111222,11144222' 
ADCP,ioos:station:wmo:42362:1,2016-08-29T07:30:00Z,27.7950,-90.6480,122.0,7.6,94.0,99.0,'11111222,11111222,11144222' 
ADCP,ioos:station:wmo:42362:1,2016-08-29T08:30:00Z,27.7950,-90.6480,122.0,6.9,83.0,99.0,'11111222,11111222,11144222' 
ADCP,ioos:station:wmo:42362:1,2016-08-29T09:30:00Z,27.7950,-90.6480,122.0,7.0,80.0,99.0,'11111222,11111222,11144222' 
ADCP,ioos:station:wmo:42362:1,2016-08-29T10:30:00Z,27.7950,-90.6480,122.0,7.2,79.0,99.0,'11111222,11111222,11144222' 
ADCP,ioos:station:wmo:42362:1,2016-08-29T11:30:00Z,27.7950,-90.6480,122.0,5.6,95.0,99.0,'11111222,11111222,11144222' 
ADCP,ioos:station:wmo:42362:1,2016-08-29T12:30:00Z,27.7950,-90.6480,122.0,27.1,134.0,99.0,'11111222,11111222,11144222' 
ADCP,ioos:station:wmo:42362:1,2016-08-29T13:30:00Z,27.7950,-90.6480,122.0,178.5,23.0,99.0,'11144222,11111222,11144222' 
ADCP,ioos:station:wmo:42362:1,2016-08-29T14:30:00Z,27.7950,-90.6480,122.0,40.3,198.0,99.0,'11111222,11111222,11144222' 
ADCP,ioos:station:wmo:42362:1,2016-08-29T15:30:00Z,27.7950,-90.6480,122.0,21.8,140.0,99.0,'11111222,11111222,11144222' 
ADCP,ioos:station:wmo:42362:1,2016-08-29T16:30:00Z,27.7950,-90.6480,122.0,11.5,98.0,99.0,'11111222,11111222,11144222' 
ADCP,ioos:station:wmo:42362:1,2016-08-29T17:30:00Z,27.7950,-90.6480,122.0,7.7,55.0,99.0,'11111222,11111222,11144222' 
ADCP,ioos:station:wmo:42362:1,2016-08-29T18:30:00Z,27.7950,-90.6480,122.0,39.5,89.0,99.0,'11111222,11111222,11144222' 
ADCP,ioos:station:wmo:42362:1,2016-08-29T19:30:00Z,27.7950,-90.6480,122.0,7.0,56.0,99.0,'11111222,11111222,11144222' 
ADCP,ioos:station:wmo:42362:1,2016-08-29T20:30:00Z,27.7950,-90.6480,122.0,9.2,51.0,99.0,'11111222,11111222,11144222' 
ADCP,ioos:station:wmo:42362:1,2016-08-29T21:30:00Z,27.7950,-90.6480,122.0,9.6,47.0,99.0,'11111222,11111222,11144222' 
ADCP,ioos:station:wmo:42362:1,2016-08-29T22:30:00Z,27.7950,-90.6480,122.0,10.1,58.0,99.0,'11111222,11111222,11144222' 
ADCP,ioos:station:wmo:42362:1,2016-08-29T23:30:00Z,27.7950,-90.6480,122.0,10.9,56.0,99.0,'11111222,11111222,11144222' 
ADCP,ioos:station:wmo:42362:1,2016-08-30T00:30:00Z,27.7950,-90.6480,122.0,10.8,60.0,99.0,'11111222,11111222,11144222' 
ADCP,ioos:station:wmo:42362:1,2016-08-30T01:30:00Z,27.7950,-90.6480,122.0,9.6,60.0,99.0,'11111222,11111222,11144222' 
ADCP,ioos:station:wmo:42362:1,2016-08-30T02:30:00Z,27.7950,-90.6480,122.0,9.4,64.0,99.0,'11111222,11111222,11144222' 
ADCP,ioos:station:wmo:42362:1,2016-08-30T03:30:00Z,27.7950,-90.6480,122.0,10.3,65.0,99.0,'11111222,11111222,11144222' 
ADCP,ioos:station:wmo:42362:1,2016-08-30T04:30:00Z,27.7950,-90.6480,122.0,10.5,70.0,99.0,'11111222,11111222,11144222' 
ADCP,ioos:station:wmo:42362:1,2016-08-30T05:30:00Z,27.7950,-90.6480,122.0,9.9,73.0,99.0,'11111222,11111222,11144222' 
ADCP,ioos:station:wmo:42362:1,2016-08-30T06:30:00Z,27.7950,-90.6480,122.0,9.6,72.0,99.0,'11111222,11111222,11144222' 
ADCP,ioos:station:wmo:42362:1,2016-08-30T07:30:00Z,27.7950,-90.6480,122.0,8.6,71.0,99.0,'11111222,11111222,11144222' 
ADCP,ioos:station:wmo:42362:1,2016-08-30T08:30:00Z,27.7950,-90.6480,122.0,8.2,68.0,99.0,'11111222,11111222,11144222' 
ADCP,ioos:station:wmo:42362:1,2016-08-30T09:30:00Z,27.7950,-90.6480,122.0,8.8,71.0,99.0,'11111222,11111222,11144222' 
ADCP,ioos:station:wmo:42362:1,2016-08-30T10:30:00Z,27.7950,-90.6480,122.0,8.4,71.0,99.0,'11111222,11111222,11144222' 
ADCP,ioos:station:wmo:42362:1,2016-08-30T11:30:00Z,27.7950,-90.6480,122.0,7.9,62.0,99.0,'11111222,11111222,11144222' 
ADCP,ioos:station:wmo:42362:1,2016-08-30T12:30:00Z,27.7950,-90.6480,122.0,7.7,53.0,99.0,'11111222,11111222,11144222' 
ADCP,ioos:station:wmo:42362:1,2016-08-30T13:30:00Z,27.7950,-90.6480,122.0,8.8,49.0,99.0,'11111222,11111222,11144222' 
ADCP,ioos:station:wmo:42362:1,2016-08-30T14:30:00Z,27.7950,-90.6480,122.0,9.0,45.0,99.0,'11111222,11111222,11144222' 
ADCP,ioos:station:wmo:42362:1,2016-08-30T15:30:00Z,27.7950,-90.6480,122.0,9.9,41.0,99.0,'11111222,11111222,11144222' 
ADCP,ioos:station:wmo:42362:1,2016-08-30T16:30:00Z,27.7950,-90.6480,122.0,10.1,38.0,99.0,'11111222,11111222,11144222' 